EW5923 Weather Reports


Display with metric or nautical units.
time (UTC)temp
F
wind
direction
speed
MPH
gust
MPH
rain 1hr
in
rain 24hr
in
rain mn
in
humidity
%
barometer
mb
20260904232123 98 14 4.0 11.0 0.00 0.05 0.00 31 1011.4
20260904231123 99 358 7.0 11.0 0.00 0.05 0.00 30 1011.4
20260904230123 98 350 3.0 6.0 0.00 0.05 0.00 31 1011.5
20260904225123 98 318 7.0 12.0 0.00 0.05 0.00 31 1011.7
20260904224144 98 321 5.0 9.0 0.00 0.05 0.00 30 1011.8
20260904223123 99 331 8.0 13.0 0.00 0.05 0.00 30 1011.9
20260904222144 98 359 6.0 10.0 0.00 0.05 0.00 31 1011.9
20260904221124 98 336 8.0 13.0 0.00 0.05 0.00 31 1012.1
20260904220123 98 341 5.0 9.0 0.00 0.05 0.00 30 1012.2
20260904215123 100 355 8.0 16.0 0.00 0.05 0.00 29 1012.2
20260904214123 98 37 5.0 11.0 0.00 0.05 0.00 31 1012.4
20260904213124 99 19 6.0 11.0 0.00 0.05 0.00 30 1012.5
20260904212123 98 345 4.0 11.0 0.00 0.05 0.00 32 1012.6
20260904211123 98 359 8.0 13.0 0.00 0.05 0.00 31 1012.7
20260904210123 97 356 5.0 11.0 0.00 0.05 0.00 35 1012.8
20260904205123 97 356 7.0 13.0 0.00 0.05 0.00 35 1012.9
20260904204144 97 50 2.0 6.0 0.00 0.05 0.00 35 1013.0
20260904203144 96 305 5.0 13.0 0.00 0.05 0.00 37 1013.2
20260904202124 97 329 7.0 15.0 0.00 0.05 0.00 36 1013.3
20260904201124 96 331 6.0 11.0 0.00 0.05 0.00 36 1013.5
20260904200123 96 346 9.0 13.0 0.00 0.05 0.00 35 1013.7
20260904195123 95 336 4.0 9.0 0.00 0.05 0.00 37 1013.7
20260904194123 95 4 3.0 12.0 0.00 0.05 0.00 38 1014.0
20260904193144 96 354 9.0 14.0 0.00 0.05 0.00 36 1014.0
20260904192123 94 359 6.0 8.0 0.00 0.05 0.00 41 1014.2
20260904191124 94 358 7.0 14.0 0.00 0.05 0.00 41 1014.4
20260904190144 94 7 7.0 12.0 0.00 0.05 0.00 41 1014.6
20260904185123 93 2 6.0 10.0 0.00 0.05 0.00 43 1014.7
20260904184123 94 357 9.0 18.0 0.00 0.05 0.00 42 1014.9
20260904183124 94 5 8.0 16.0 0.00 0.05 0.00 41 1015.0
20260904182123 93 347 9.0 15.0 0.00 0.05 0.00 42 1015.1
20260904181123 93 355 7.0 14.0 0.00 0.05 0.00 43 1015.1
20260904180123 92 347 8.0 13.0 0.00 0.05 0.00 42 1015.3
20260904175123 93 355 7.0 14.0 0.00 0.05 0.00 43 1015.2
20260904174123 92 359 9.0 15.0 0.00 0.05 0.00 47 1015.2
20260904173123 91 360 9.0 15.0 0.00 0.05 0.00 47 1015.3
20260904172123 92 6 8.0 13.0 0.00 0.05 0.00 46 1015.4
20260904171123 91 3 8.0 17.0 0.00 0.05 0.00 47 1015.3
20260904170123 91 2 10.0 17.0 0.00 0.05 0.00 49 1015.5
20260904165123 90 0 10.0 15.0 0.00 0.05 0.00 47 1015.3
20260904164123 90 4 6.0 12.0 0.00 0.05 0.00 50 1015.3
20260904163123 90 1 7.0 14.0 0.00 0.05 0.00 51 1015.2
20260904162122 89 359 8.0 15.0 0.00 0.05 0.00 53 1015.1
20260904161144 89 2 10.0 15.0 0.00 0.05 0.00 53 1015.2
20260904160124 89 4 10.0 17.0 0.00 0.05 0.00 54 1015.2
20260904155124 88 7 10.0 14.0 0.00 0.05 0.00 54 1015.0
20260904154144 88 11 8.0 14.0 0.00 0.05 0.00 55 1015.0
20260904153145 88 5 9.0 13.0 0.00 0.05 0.00 55 1015.0
20260904152124 87 3 8.0 13.0 0.00 0.05 0.00 56 1015.0
20260904151123 87 9 9.0 13.0 0.00 0.05 0.00 56 1015.0
20260904150123 87 2 7.0 13.0 0.00 0.05 0.00 57 1015.0
20260904145122 86 11 8.0 12.0 0.00 0.05 0.00 57 1014.9
20260904144123 86 13 7.0 13.0 0.00 0.05 0.00 58 1014.8
20260904143123 85 18 6.0 10.0 0.00 0.05 0.00 59 1014.7
20260904142122 85 6 7.0 13.0 0.00 0.05 0.00 60 1014.6
20260904141123 84 7 7.0 11.0 0.00 0.05 0.00 61 1014.6
20260904140122 84 8 7.0 13.0 0.00 0.05 0.00 61 1014.4
20260904135123 83 11 8.0 12.0 0.00 0.05 0.00 62 1014.2
20260904134145 83 15 6.0 11.0 0.00 0.05 0.00 62 1014.2
20260904133123 83 16 5.0 9.0 0.00 0.05 0.00 62 1014.1
20260904132122 83 26 6.0 9.0 0.00 0.05 0.00 62 1013.8
20260904131124 83 73 6.0 12.0 0.00 0.05 0.00 62 1013.5
20260904130123 83 29 7.0 10.0 0.00 0.05 0.00 62 1013.5
20260904125124 83 29 5.0 10.0 0.00 0.05 0.00 62 1013.4
20260904124123 83 21 5.0 10.0 0.00 0.05 0.00 62 1013.3
20260904123123 83 13 5.0 9.0 0.00 0.05 0.00 61 1013.2
20260904122123 83 8 6.0 10.0 0.00 0.05 0.00 61 1013.1
20260904121144 83 19 5.0 9.0 0.00 0.05 0.00 61 1013.1
20260904120123 83 12 4.0 8.0 0.00 0.05 0.00 61 1013.1
20260904115124 84 12 5.0 8.0 0.00 0.05 0.00 60 1013.0
20260904114124 84 23 6.0 12.0 0.00 0.05 0.00 60 1013.0
20260904113122 84 31 6.0 10.0 0.00 0.05 0.00 60 1012.9
20260904112145 84 33 5.0 9.0 0.00 0.05 0.00 60 1013.0
20260904111124 84 16 5.0 9.0 0.00 0.05 0.00 60 1012.9
20260904110123 84 20 6.0 11.0 0.00 0.05 0.00 59 1013.0
20260904105124 84 32 5.0 9.0 0.00 0.05 0.00 59 1013.0
20260904104123 84 11 5.0 9.0 0.00 0.05 0.00 59 1012.8
20260904103124 84 7 4.0 8.0 0.00 0.05 0.00 59 1012.8
20260904102123 84 24 4.0 6.0 0.00 0.05 0.00 59 1012.7
20260904101123 84 14 3.0 6.0 0.00 0.05 0.00 59 1012.6
20260904100124 84 16 4.0 9.0 0.00 0.05 0.00 58 1012.6
20260904095123 85 89 5.0 9.0 0.00 0.05 0.00 58 1012.7
20260904094123 85 60 4.0 8.0 0.00 0.05 0.00 59 1012.6
20260904093143 85 34 5.0 8.0 0.00 0.05 0.00 58 1012.6
20260904092123 85 11 4.0 8.0 0.00 0.05 0.00 58 1012.5
20260904091123 85 22 4.0 8.0 0.00 0.05 0.00 58 1012.5
20260904090143 85 18 5.0 10.0 0.00 0.05 0.00 58 1012.5
20260904085123 85 43 5.0 9.0 0.00 0.05 0.00 58 1012.5
20260904084143 85 21 6.0 10.0 0.00 0.05 0.00 58 1012.6
20260904083143 85 13 5.0 10.0 0.00 0.05 0.00 57 1012.6
20260904082145 85 10 6.0 11.0 0.00 0.05 0.00 57 1012.8
20260904081122 85 9 9.0 13.0 0.00 0.05 0.00 57 1012.8
20260904080123 85 8 6.0 12.0 0.00 0.05 0.00 57 1012.8
20260904075122 86 11 6.0 12.0 0.00 0.05 0.00 57 1012.7
20260904074124 86 12 8.0 12.0 0.00 0.05 0.00 56 1012.7
20260904073122 86 8 8.0 12.0 0.00 0.05 0.00 56 1012.7
20260904072122 86 1 9.0 14.0 0.00 0.05 0.00 55 1012.7
20260904071122 87 2 9.0 14.0 0.00 0.05 0.00 55 1012.6
20260904070122 87 3 9.0 14.0 0.00 0.05 0.00 54 1012.6
20260904065124 87 68 8.0 13.0 0.00 0.05 0.05 53 1012.6
20260904064145 87 5 9.0 16.0 0.00 0.05 0.05 53 1012.5
20260904063143 87 9 7.0 14.0 0.00 0.05 0.05 53 1012.5
20260904062123 87 8 7.0 11.0 0.00 0.05 0.05 53 1012.3
20260904061122 88 9 9.0 13.0 0.00 0.05 0.05 52 1012.2
20260904060143 88 11 10.0 15.0 0.00 0.05 0.05 52 1012.2
20260904055143 88 23 8.0 14.0 0.00 0.05 0.05 51 1012.1
20260904054124 88 27 10.0 16.0 0.00 0.05 0.05 50 1011.9
20260904053122 88 46 8.0 14.0 0.00 0.05 0.05 50 1012.1
20260904052122 88 72 6.0 12.0 0.00 0.05 0.05 50 1012.0
20260904051122 88 74 5.0 10.0 0.00 0.05 0.05 50 1012.0
20260904050122 88 87 5.0 11.0 0.00 0.05 0.05 50 1011.9
20260904045123 88 77 6.0 11.0 0.00 0.05 0.05 49 1011.8
20260904044123 89 33 7.0 15.0 0.00 0.05 0.05 47 1011.9
20260904043123 89 6 8.0 14.0 0.00 0.05 0.05 46 1011.7
20260904042122 89 137 6.0 13.0 0.00 0.05 0.05 46 1011.5
20260904041122 87 86 0.0 1.0 0.00 0.05 0.05 59 1011.5
20260904040122 86 84 3.0 4.0 0.00 0.05 0.05 62 1011.3
20260904035123 86 77 3.0 3.0 0.00 0.05 0.05 63 1011.3
20260904034122 86 86 2.0 4.0 0.00 0.05 0.05 61 1011.1
20260904033143 87 86 0.0 0.0 0.00 0.05 0.05 55 1011.1
20260904032123 88 85 1.0 5.0 0.00 0.05 0.05 51 1010.9
20260904031122 87 69 5.0 9.0 0.00 0.05 0.05 54 1010.8
20260904030123 86 72 3.0 5.0 0.00 0.05 0.05 60 1010.8
20260904025122 86 169 3.0 5.0 0.02 0.05 0.05 61 1010.5
20260904024122 86 170 0.0 2.0 0.05 0.05 0.05 60 1010.5
20260904023124 86 170 5.0 7.0 0.05 0.05 0.05 57 1010.6
20260904022122 84 291 2.0 6.0 0.05 0.05 0.05 62 1010.4
20260904021122 83 303 1.0 2.0 0.05 0.05 0.05 61 1010.4
20260904020144 84 333 14.0 22.0 0.05 0.05 0.05 57 1010.9
20260904015145 90 340 14.0 23.0 0.01 0.01 0.01 54 1010.8
20260904014122 96 344 9.0 24.0 0.00 0.00 0.00 38 1010.5
20260904013122 96 73 6.0 11.0 0.00 0.00 0.00 33 1010.0
20260904012122 96 72 7.0 11.0 0.00 0.00 0.00 33 1010.1
20260904011122 96 103 4.0 7.0 0.00 0.00 0.00 33 1010.1
20260904010122 96 355 5.0 8.0 0.00 0.00 0.00 33 1009.9
20260904005143 96 78 4.0 8.0 0.00 0.00 0.00 32 1009.9
20260904004123 97 355 5.0 9.0 0.00 0.00 0.00 32 1010.1
20260904003124 97 64 3.0 8.0 0.00 0.00 0.00 31 1009.8
20260904002122 97 132 4.0 7.0 0.00 0.00 0.00 31 1009.9
20260904001144 97 360 2.0 3.0 0.00 0.00 0.00 32 1009.9
20260904000122 97 303 7.0 14.0 0.00 0.00 0.00 31 1010.0
20260903235143 98 115 4.0 8.0 0.00 0.00 0.00 30 1010.2
20260903234143 97 359 1.0 4.0 0.00 0.00 0.00 31 1010.3
20260903233122 98 336 6.0 10.0 0.00 0.00 0.00 30 1010.5